SR9NLI Weather Reports


time (UTC)temp
C
wind
direction
speed
KPH
gust
KPH
rain 1hr
cm
rain 24hr
cm
rain mn
cm
humidity
%
barometer
mb
20260506152655 20 212 3.2 16.1 0.00 0.00 0.00 100 949.1
20260506152453 20 205 3.2 16.1 0.00 0.00 0.00 100 949.2
20260506152250 20 225 3.2 16.1 0.00 0.00 0.00 100 949.3
20260506152149 20 218 3.2 16.1 0.00 0.00 0.00 100 949.2
20260506152046 20 207 4.8 19.3 0.00 0.00 0.00 100 949.3
20260506151843 20 204 4.8 19.3 0.00 0.00 0.00 100 949.2
20260506151640 20 206 4.8 19.3 0.00 0.00 0.00 100 949.2
20260506151540 20 205 4.8 14.5 0.00 0.00 0.00 100 949.2
20260506151437 20 204 4.8 14.5 0.00 0.00 0.00 100 949.2
20260506151234 20 200 4.8 16.1 0.00 0.00 0.00 100 949.2
20260506151032 20 181 4.8 17.7 0.00 0.00 0.00 100 949.2
20260506150931 20 174 6.4 25.7 0.00 0.00 0.00 100 949.3
20260506150828 20 172 8.0 27.4 0.00 0.00 0.00 100 949.2
20260506150626 20 171 6.4 27.4 0.00 0.00 0.00 100 949.3
20260506150423 21 201 3.2 16.1 0.00 0.00 0.00 100 949.3
20260506150323 21 179 6.4 24.1 0.00 0.00 0.00 100 949.4
20260506150220 21 178 6.4 24.1 0.00 0.00 0.00 100 949.4
20260506150017 21 174 6.4 24.1 0.00 0.00 0.00 100 949.4
20260506145814 21 178 4.8 20.9 0.00 0.00 0.00 100 949.3
20260506145713 21 177 6.4 22.5 0.00 0.00 0.00 100 949.4
20260506145610 21 182 4.8 22.5 0.00 0.00 0.00 100 949.4
20260506145407 20 188 6.4 22.5 0.00 0.00 0.00 100 949.3
20260506145204 20 184 6.4 22.5 0.00 0.00 0.00 100 949.4
20260506145104 20 185 6.4 22.5 0.00 0.00 0.00 100 949.3
20260506145002 20 181 6.4 24.1 0.00 0.00 0.00 100 949.3
20260506144758 20 187 6.4 24.1 0.00 0.00 0.00 100 949.5
20260506144555 20 188 6.4 22.5 0.00 0.00 0.00 100 949.5
20260506144455 20 189 6.4 22.5 0.00 0.00 0.00 100 949.5
20260506144353 20 191 6.4 20.9 0.00 0.00 0.00 100 949.5
20260506144149 20 192 6.4 24.1 0.00 0.00 0.00 100 949.4
20260506143946 20 191 6.4 24.1 0.00 0.00 0.00 100 949.4
20260506143845 20 194 4.8 24.1 0.00 0.00 0.00 100 949.5
20260506143743 21 191 6.4 24.1 0.00 0.00 0.00 100 949.3
20260506143540 21 198 6.4 25.7 0.00 0.00 0.00 100 949.3
20260506143337 21 203 4.8 20.9 0.00 0.00 0.00 100 949.5
20260506143236 21 204 3.2 14.5 0.00 0.00 0.00 100 949.5
20260506143134 21 201 3.2 20.9 0.00 0.00 0.00 100 949.4
20260506142931 21 192 4.8 22.5 0.00 0.00 0.00 100 949.6
20260506142728 21 196 4.8 22.5 0.00 0.00 0.00 100 949.4
20260506142627 21 210 4.8 22.5 0.00 0.00 0.00 100 949.5
20260506142525 21 204 4.8 14.5 0.00 0.00 0.00 100 949.5
20260506142321 21 201 4.8 16.1 0.00 0.00 0.00 100 949.5
20260506142118 21 193 4.8 19.3 0.00 0.00 0.00 100 949.4
20260506142017 21 200 4.8 19.3 0.00 0.00 0.00 100 949.4
20260506141914 21 198 3.2 19.3 0.00 0.00 0.00 100 949.5
20260506141711 21 206 3.2 19.3 0.00 0.00 0.00 100 949.5
20260506141508 21 195 4.8 25.7 0.00 0.00 0.00 100 949.6
20260506141407 21 186 8.0 30.6 0.00 0.00 0.00 100 949.4
20260506141304 21 185 8.0 30.6 0.00 0.00 0.00 100 949.4
20260506141101 21 176 8.0 30.6 0.00 0.00 0.00 100 949.4
20260506140858 21 177 8.0 27.4 0.00 0.00 0.00 100 949.4
20260506140757 21 177 6.4 27.4 0.00 0.00 0.00 100 949.4
20260506140654 21 185 6.4 25.7 0.00 0.00 0.00 100 949.4
20260506140452 22 204 3.2 19.3 0.00 0.00 0.00 100 949.4
20260506140248 22 213 3.2 19.3 0.00 0.00 0.00 100 949.4
20260506140147 22 212 4.8 24.1 0.00 0.00 0.00 100 949.4
20260506140045 22 213 3.2 24.1 0.00 0.00 0.00 100 949.4
20260506135842 23 226 3.2 24.1 0.00 0.00 0.00 100 949.4
20260506135638 23 244 3.2 17.7 0.00 0.00 0.00 100 949.4
20260506135537 23 239 4.8 17.7 0.00 0.00 0.00 100 949.4
20260506135435 23 241 3.2 17.7 0.00 0.00 0.00 100 949.3
20260506135232 23 240 3.2 14.5 0.00 0.00 0.00 100 949.3
20260506135029 22 241 3.2 19.3 0.00 0.00 0.00 100 949.3
20260506134928 22 226 3.2 19.3 0.00 0.00 0.00 100 949.4
20260506134826 22 213 4.8 19.3 0.00 0.00 0.00 100 949.3
20260506134622 22 192 6.4 24.1 0.00 0.00 0.00 100 949.3
20260506134409 22 203 6.4 24.1 0.00 0.00 0.00 100 949.3
20260506134309 22 211 6.4 24.1 0.00 0.00 0.00 100 949.4
20260506134206 22 247 3.2 17.7 0.00 0.00 0.00 100 949.4
20260506134004 23 230 3.2 16.1 0.00 0.00 0.00 100 949.4
20260506133801 22 202 3.2 17.7 0.00 0.00 0.00 100 949.4
20260506133700 22 207 3.2 17.7 0.00 0.00 0.00 100 949.4
20260506133558 22 195 4.8 20.9 0.00 0.00 0.00 100 949.3
20260506133354 22 190 6.4 24.1 0.00 0.00 0.00 100 949.4
20260506133151 21 190 8.0 24.1 0.00 0.00 0.00 100 949.2
20260506133050 21 202 4.8 19.3 0.00 0.00 0.00 100 949.2
20260506132948 22 198 4.8 19.3 0.00 0.00 0.00 100 949.4
20260506132744 22 211 3.2 17.7 0.00 0.00 0.00 100 949.4
20260506132541 21 202 4.8 25.7 0.00 0.00 0.00 100 949.4
20260506132441 21 211 4.8 25.7 0.00 0.00 0.00 100 949.4
20260506132338 21 203 4.8 25.7 0.00 0.00 0.00 100 949.3
20260506132134 21 191 6.4 25.7 0.00 0.00 0.00 100 949.3
20260506131931 22 185 6.4 22.5 0.00 0.00 0.00 100 949.3
20260506131831 22 189 4.8 22.5 0.00 0.00 0.00 100 949.3
20260506131729 22 206 4.8 22.5 0.00 0.00 0.00 100 949.2
20260506131526 22 215 3.2 12.9 0.00 0.00 0.00 100 949.3
20260506131324 22 228 3.2 11.3 0.00 0.00 0.00 100 949.3
20260506131223 22 224 3.2 12.9 0.00 0.00 0.00 100 949.3
20260506131120 22 246 3.2 12.9 0.00 0.00 0.00 100 949.4
20260506130917 22 209 4.8 16.1 0.00 0.00 0.00 100 949.3
20260506130715 22 191 6.4 17.7 0.00 0.00 0.00 100 949.5
20260506130614 22 187 6.4 20.9 0.00 0.00 0.00 100 949.4
20260506130511 22 189 4.8 20.9 0.00 0.00 0.00 100 949.3
20260506130308 22 205 3.2 24.1 0.00 0.00 0.00 100 949.4
20260506130105 22 208 3.2 24.1 0.00 0.00 0.00 100 949.5
20260506130005 22 215 4.8 24.1 0.00 0.00 0.00 100 949.5
20260506125902 22 230 3.2 19.3 0.00 0.00 0.00 100 949.5
20260506125659 22 0 3.2 11.3 0.00 0.00 0.00 100 949.5
20260506125456 22 233 3.2 14.5 0.00 0.00 0.00 100 949.3
20260506125355 22 236 4.8 22.5 0.00 0.00 0.00 100 949.5
20260506125254 22 243 4.8 22.5 0.00 0.00 0.00 100 949.5
20260506125050 22 239 6.4 22.5 0.00 0.00 0.00 100 949.6
20260506124846 22 229 6.4 20.9 0.00 0.00 0.00 100 949.6
20260506124746 22 236 6.4 20.9 0.00 0.00 0.00 100 949.6
20260506124643 22 237 6.4 20.9 0.00 0.00 0.00 100 949.6
20260506124439 22 235 4.8 20.9 0.00 0.00 0.00 100 949.6
20260506124237 22 236 4.8 20.9 0.00 0.00 0.00 100 949.6
20260506124136 22 238 3.2 20.9 0.00 0.00 0.00 100 949.6
20260506124034 22 240 3.2 12.9 0.00 0.00 0.00 100 949.6
20260506123830 22 229 3.2 12.9 0.00 0.00 0.00 100 949.7
20260506123627 22 226 3.2 17.7 0.00 0.00 0.00 100 949.8
20260506123527 22 220 3.2 17.7 0.00 0.00 0.00 100 949.8
20260506123425 22 236 3.2 27.4 0.00 0.00 0.00 100 949.8
20260506123221 22 241 3.2 27.4 0.00 0.00 0.00 100 949.7
20260506123018 22 238 3.2 14.5 0.00 0.00 0.00 100 949.8
20260506122917 22 240 3.2 17.7 0.00 0.00 0.00 100 949.8
20260506122815 22 243 3.2 17.7 0.00 0.00 0.00 100 949.8
20260506122612 22 222 3.2 17.7 0.00 0.00 0.00 100 949.5
20260506122409 22 210 3.2 16.1 0.00 0.00 0.00 100 949.8
20260506122309 22 218 3.2 16.1 0.00 0.00 0.00 100 949.8
20260506122206 22 237 3.2 16.1 0.00 0.00 0.00 100 949.9
20260506122003 22 252 3.2 14.5 0.00 0.00 0.00 100 949.8
20260506121800 22 207 3.2 17.7 0.00 0.00 0.00 100 949.8
20260506121700 22 204 3.2 17.7 0.00 0.00 0.00 100 949.8
20260506121558 22 197 3.2 17.7 0.00 0.00 0.00 100 949.8
20260506121355 22 209 3.2 16.1 0.00 0.00 0.00 100 949.8
20260506121152 22 204 4.8 20.9 0.00 0.00 0.00 100 949.8
20260506121051 22 195 4.8 20.9 0.00 0.00 0.00 100 949.8
20260506120948 22 201 4.8 20.9 0.00 0.00 0.00 100 949.6
20260506120745 22 202 4.8 24.1 0.00 0.00 0.00 100 949.7
20260506120542 22 177 6.4 24.1 0.00 0.00 0.00 100 949.8
20260506120442 22 173 9.7 24.1 0.00 0.00 0.00 100 949.6
20260506120340 22 171 9.7 24.1 0.00 0.00 0.00 100 949.7
20260506120136 22 171 6.4 24.1 0.00 0.00 0.00 100 949.7
20260506115932 22 180 6.4 20.9 0.00 0.00 0.00 100 949.7
20260506115832 22 179 6.4 20.9 0.00 0.00 0.00 100 949.8
20260506115729 22 179 6.4 20.9 0.00 0.00 0.00 100 949.6
20260506115526 22 179 4.8 19.3 0.00 0.00 0.00 100 949.7
20260506115322 22 127 3.2 19.3 0.00 0.00 0.00 100 949.7
20260506115222 22 126 4.8 19.3 0.00 0.00 0.00 100 949.8
20260506115120 22 151 4.8 19.3 0.00 0.00 0.00 100 949.7
20260506114917 22 197 4.8 19.3 0.00 0.00 0.00 100 949.8
20260506114714 22 194 4.8 27.4 0.00 0.00 0.00 100 949.8
20260506114613 22 183 6.4 27.4 0.00 0.00 0.00 100 949.7
20260506114510 21 183 6.4 27.4 0.00 0.00 0.00 100 949.6
20260506114307 21 213 6.4 22.5 0.00 0.00 0.00 100 949.8
20260506114105 21 240 6.4 22.5 0.00 0.00 0.00 100 949.8
20260506114004 21 254 9.7 27.4 0.00 0.00 0.00 100 949.8
20260506113902 21 256 8.0 27.4 0.00 0.00 0.00 100 949.8
20260506113658 21 254 9.7 27.4 0.00 0.00 0.00 100 949.7
20260506113455 21 232 4.8 24.1 0.00 0.00 0.00 100 949.8
20260506113355 21 232 4.8 24.1 0.00 0.00 0.00 100 949.9
20260506113253 21 216 4.8 19.3 0.00 0.00 0.00 100 949.9
20260506113050 21 235 6.4 29.0 0.00 0.00 0.00 100 949.9
20260506112847 21 237 4.8 29.0 0.00 0.00 0.00 100 949.9
20260506112746 21 219 4.8 20.9 0.00 0.00 0.00 100 949.9
20260506112644 21 255 6.4 20.9 0.00 0.00 0.00 100 949.9
20260506112441 20 261 12.9 27.4 0.00 0.00 0.00 100 950.0
20260506112238 20 261 9.7 27.4 0.00 0.00 0.00 100 949.8
20260506112137 21 248 6.4 27.4 0.00 0.00 0.00 100 949.8
20260506112035 21 249 4.8 24.1 0.00 0.00 0.00 100 949.8
20260506111832 21 250 8.0 24.1 0.00 0.00 0.00 100 950.0
20260506111629 21 251 8.0 24.1 0.00 0.00 0.00 100 949.9
20260506111528 21 240 4.8 24.1 0.00 0.00 0.00 100 949.9
20260506111426 21 241 4.8 20.9 0.00 0.00 0.00 100 950.0
20260506111224 21 231 4.8 19.3 0.00 0.00 0.00 100 949.9
20260506111020 21 242 8.0 30.6 0.00 0.00 0.00 100 949.9
20260506110920 21 243 6.4 30.6 0.00 0.00 0.00 100 950.0
20260506110818 21 246 4.8 30.6 0.00 0.00 0.00 100 950.0
20260506110601 21 243 3.2 16.1 0.00 0.00 0.00 100 949.9
20260506110359 21 251 9.7 32.2 0.00 0.00 0.00 100 949.9
20260506110258 21 252 11.3 32.2 0.00 0.00 0.00 100 949.9
20260506110155 21 250 9.7 32.2 0.00 0.00 0.00 100 949.8
20260506105953 21 233 6.4 20.9 0.00 0.00 0.00 100 949.9
20260506105750 21 229 6.4 25.7 0.00 0.00 0.00 100 950.0
20260506105650 21 231 6.4 25.7 0.00 0.00 0.00 100 950.0
20260506105547 21 232 6.4 25.7 0.00 0.00 0.00 100 950.0
20260506105344 21 238 6.4 22.5 0.00 0.00 0.00 100 950.0
20260506105140 21 235 4.8 20.9 0.00 0.00 0.00 100 949.9
20260506105039 21 233 4.8 20.9 0.00 0.00 0.00 100 950.0
20260506104937 21 232 4.8 25.7 0.00 0.00 0.00 100 950.0
20260506104734 21 235 3.2 25.7 0.00 0.00 0.00 100 950.0
20260506104531 21 242 3.2 16.1 0.00 0.00 0.00 100 950.1
20260506104431 21 246 3.2 16.1 0.00 0.00 0.00 100 950.0
20260506104328 21 243 3.2 16.1 0.00 0.00 0.00 100 950.0
20260506104125 21 0 3.2 16.1 0.00 0.00 0.00 100 950.1
20260506103922 21 186 4.8 17.7 0.00 0.00 0.00 100 950.1
20260506103821 21 179 4.8 24.1 0.00 0.00 0.00 100 950.1
20260506103719 21 179 6.4 24.1 0.00 0.00 0.00 100 950.0
20260506103516 21 187 4.8 24.1 0.00 0.00 0.00 100 950.0
20260506103313 21 240 3.2 17.7 0.00 0.00 0.00 100 950.1
20260506103212 21 231 3.2 17.7 0.00 0.00 0.00 100 950.1
20260506103110 21 214 4.8 19.3 0.00 0.00 0.00 100 950.1
20260506102907 21 209 3.2 19.3 0.00 0.00 0.00 100 950.1
20260506102704 21 208 3.2 19.3 0.00 0.00 0.00 100 950.1
20260506102603 21 197 3.2 19.3 0.00 0.00 0.00 100 950.1
20260506102500 21 198 3.2 19.3 0.00 0.00 0.00 100 950.1
20260506102258 21 185 3.2 19.3 0.00 0.00 0.00 100 950.1
20260506102055 21 200 3.2 14.5 0.00 0.00 0.00 100 950.2
20260506101954 21 213 3.2 9.7 0.00 0.00 0.00 100 950.2
20260506101852 21 218 3.2 9.7 0.00 0.00 0.00 100 950.2
20260506101649 21 228 1.6 12.9 0.00 0.00 0.00 100 950.3
20260506101446 21 214 3.2 12.9 0.00 0.00 0.00 100 950.3
20260506101345 21 207 3.2 12.9 0.00 0.00 0.00 100 950.4
20260506101242 21 210 3.2 16.1 0.00 0.00 0.00 100 950.4
20260506101040 20 217 3.2 19.3 0.00 0.00 0.00 100 950.2
20260506100836 20 221 3.2 12.9 0.00 0.00 0.00 100 950.3
20260506100736 20 217 3.2 16.1 0.00 0.00 0.00 100 950.2
20260506100633 20 219 3.2 16.1 0.00 0.00 0.00 100 950.2
20260506100429 20 242 4.8 24.1 0.00 0.00 0.00 100 950.3
20260506100226 19 247 6.4 24.1 0.00 0.00 0.00 100 950.3
20260506100126 19 242 6.4 24.1 0.00 0.00 0.00 100 950.2
20260506100023 19 241 8.0 24.1 0.00 0.00 0.00 100 950.2
20260506095820 19 250 9.7 27.4 0.00 0.00 0.00 100 950.2
20260506095617 19 253 9.7 27.4 0.00 0.00 0.00 100 950.1
20260506095516 20 250 8.0 27.4 0.00 0.00 0.00 100 950.2
20260506095413 20 246 8.0 25.7 0.00 0.00 0.00 100 950.2
20260506095211 20 237 8.0 30.6 0.00 0.00 0.00 100 950.0
20260506095008 20 265 11.3 30.6 0.00 0.00 0.00 100 950.0
20260506094907 19 269 11.3 30.6 0.00 0.00 0.00 100 949.8
20260506094805 19 269 11.3 25.7 0.00 0.00 0.00 100 950.0
20260506094602 20 243 4.8 25.7 0.00 0.00 0.00 100 950.1
20260506094358 21 266 3.2 12.9 0.00 0.00 0.00 100 950.1
20260506094258 21 0 3.2 11.3 0.00 0.00 0.00 100 950.1
20260506094155 21 238 3.2 14.5 0.00 0.00 0.00 100 950.2
20260506093952 21 229 4.8 14.5 0.00 0.00 0.00 100 950.2
20260506093749 20 233 3.2 14.5 0.00 0.00 0.00 100 950.1
20260506093648 20 229 3.2 12.9 0.00 0.00 0.00 100 950.2
20260506093545 20 232 3.2 19.3 0.00 0.00 0.00 100 950.1
20260506093342 20 228 3.2 19.3 0.00 0.00 0.00 100 950.1
20260506093140 20 237 6.4 27.4 0.00 0.00 0.00 100 950.0
20260506093039 20 246 6.4 27.4 0.00 0.00 0.00 100 950.0
20260506092936 20 247 6.4 27.4 0.00 0.00 0.00 100 950.0
20260506092733 20 241 6.4 24.1 0.00 0.00 0.00 100 950.0
20260506092530 20 227 3.2 19.3 0.00 0.00 0.00 100 949.9
20260506092430 20 221 3.2 17.7 0.00 0.00 0.00 100 949.9
20260506092328 20 218 3.2 17.7 0.00 0.00 0.00 100 950.0
20260506092124 20 217 3.2 14.5 0.00 0.00 0.00 100 949.9
20260506091922 20 220 3.2 14.5 0.00 0.00 0.00 100 950.0
20260506091821 19 227 3.2 14.5 0.00 0.00 0.00 100 949.9
20260506091718 19 235 3.2 14.5 0.00 0.00 0.00 100 949.9
20260506091515 19 244 3.2 16.1 0.00 0.00 0.00 100 950.0
20260506091312 19 241 4.8 16.1 0.00 0.00 0.00 100 950.0
20260506091212 19 235 4.8 16.1 0.00 0.00 0.00 100 950.0
20260506091109 19 214 3.2 16.1 0.00 0.00 0.00 100 949.9
20260506090906 19 214 3.2 12.9 0.00 0.00 0.00 100 950.0
20260506090703 20 215 3.2 12.9 0.00 0.00 0.00 100 949.9
20260506090603 20 224 3.2 12.9 0.00 0.00 0.00 100 949.9
20260506090500 20 240 3.2 12.9 0.00 0.00 0.00 100 950.1
20260506090257 20 239 3.2 12.9 0.00 0.00 0.00 100 950.0
20260506090053 20 243 4.8 22.5 0.00 0.00 0.00 100 950.0
20260506085953 20 245 4.8 22.5 0.00 0.00 0.00 100 950.0
20260506085850 19 247 4.8 22.5 0.00 0.00 0.00 100 950.0
20260506085647 19 218 3.2 14.5 0.00 0.00 0.00 100 949.9
20260506085444 19 229 3.2 32.2 0.00 0.00 0.00 100 949.9
20260506085343 19 224 4.8 32.2 0.00 0.00 0.00 100 949.8
20260506085240 19 226 4.8 32.2 0.00 0.00 0.00 100 949.9
20260506085038 19 216 3.2 16.1 0.00 0.00 0.00 100 949.9
20260506084835 19 235 4.8 24.1 0.00 0.00 0.00 100 950.0
20260506084734 19 237 4.8 24.1 0.00 0.00 0.00 100 949.9
20260506084632 19 234 4.8 24.1 0.00 0.00 0.00 100 949.9
20260506084430 19 226 3.2 19.3 0.00 0.00 0.00 100 949.9
20260506084227 19 236 4.8 27.4 0.00 0.00 0.00 100 949.9
20260506084127 19 244 6.4 27.4 0.00 0.00 0.00 100 949.9
20260506084024 19 247 6.4 27.4 0.00 0.00 0.00 100 949.7
20260506083821 18 239 6.4 19.3 0.00 0.00 0.00 100 949.9
20260506083618 19 222 4.8 19.3 0.00 0.00 0.00 100 949.9
20260506083517 19 228 4.8 19.3 0.00 0.00 0.00 100 949.9
20260506083415 19 226 3.2 16.1 0.00 0.00 0.00 100 949.8
20260506083212 19 184 4.8 22.5 0.00 0.00 0.00 100 949.9
20260506083009 19 209 6.4 22.5 0.00 0.00 0.00 100 949.8
20260506082908 19 223 4.8 20.9 0.00 0.00 0.00 100 949.8
20260506082805 18 238 6.4 20.9 0.00 0.00 0.00 100 949.7
20260506082551 18 223 4.8 20.9 0.00 0.00 0.00 100 949.7
20260506082349 18 219 3.2 12.9 0.00 0.00 0.00 100 949.8
20260506082248 18 226 3.2 19.3 0.00 0.00 0.00 100 949.7
20260506082145 18 229 3.2 19.3 0.00 0.00 0.00 100 949.8
20260506081942 18 240 3.2 22.5 0.00 0.00 0.00 100 949.8
20260506081739 18 227 4.8 22.5 0.00 0.00 0.00 100 949.8
20260506081638 18 231 4.8 22.5 0.00 0.00 0.00 100 949.8
20260506081536 18 223 3.2 16.1 0.00 0.00 0.00 100 949.9
20260506081333 18 218 3.2 20.9 0.00 0.00 0.00 100 949.8
20260506081130 18 218 3.2 20.9 0.00 0.00 0.00 100 949.8
20260506081029 18 220 3.2 20.9 0.00 0.00 0.00 100 949.8
20260506080927 18 224 3.2 11.3 0.00 0.00 0.00 100 949.9
20260506080724 18 225 3.2 14.5 0.00 0.00 0.00 100 949.8
20260506080520 18 223 3.2 16.1 0.00 0.00 0.00 100 949.9
20260506080420 18 222 3.2 16.1 0.00 0.00 0.00 100 949.7
20260506080317 18 221 3.2 16.1 0.00 0.00 0.00 100 949.8
20260506080114 18 223 3.2 11.3 0.00 0.00 0.00 100 949.8
20260506073433 17 251 3.2 16.1 0.00 0.00 0.00 100 949.7
20260506073333 17 217 3.2 14.5 0.00 0.00 0.00 100 949.6
20260506073230 17 221 3.2 19.3 0.00 0.00 0.00 100 949.7
20260506073028 17 217 3.2 25.7 0.00 0.00 0.00 100 949.7
20260506072824 17 241 3.2 25.7 0.00 0.00 0.00 100 949.6
20260506072724 17 255 3.2 25.7 0.00 0.00 0.00 100 949.5
20260506072622 17 260 3.2 12.9 0.00 0.00 0.00 100 949.7
20260506072419 17 220 3.2 19.3 0.00 0.00 0.00 100 949.7
20260506072216 16 217 4.8 19.3 0.00 0.00 0.00 100 949.6
20260506072115 17 221 4.8 16.1 0.00 0.00 0.00 100 949.7
20260506072013 16 224 3.2 16.1 0.00 0.00 0.00 100 949.5
20260506071810 16 227 4.8 22.5 0.00 0.00 0.00 100 949.4
20260506071607 16 230 6.4 22.5 0.00 0.00 0.00 100 949.5
20260506071507 16 222 6.4 22.5 0.00 0.00 0.00 100 949.5
20260506071404 16 218 4.8 20.9 0.00 0.00 0.00 100 949.5
20260506071201 16 213 3.2 14.5 0.00 0.00 0.00 100 949.4
20260506070957 16 0 3.2 20.9 0.00 0.00 0.00 100 949.4
20260506070857 16 0 3.2 20.9 0.00 0.00 0.00 100 949.5
20260506070754 16 211 3.2 20.9 0.00 0.00 0.00 100 949.4
20260506070550 16 238 3.2 20.9 0.00 0.00 0.00 100 949.4
20260506070347 16 250 3.2 16.1 0.00 0.00 0.00 100 949.4
20260506070247 16 270 3.2 16.1 0.00 0.00 0.00 100 949.3
20260506070144 16 0 3.2 16.1 0.00 0.00 0.00 100 949.5
20260506062449 15 215 3.2 19.3 0.00 0.00 0.00 100 949.3
20260506062245 15 226 4.8 30.6 0.00 0.00 0.00 100 949.2
20260506062042 15 231 4.8 30.6 0.00 0.00 0.00 100 949.3
20260506061941 15 226 4.8 30.6 0.00 0.00 0.00 100 949.2
20260506061839 15 217 4.8 19.3 0.00 0.00 0.00 100 949.2
20260506061636 15 215 4.8 19.3 0.00 0.00 0.00 100 949.3
20260506061433 15 222 4.8 24.1 0.00 0.00 0.00 100 949.2
20260506061333 15 217 4.8 24.1 0.00 0.00 0.00 100 949.3
20260506061230 15 219 4.8 24.1 0.00 0.00 0.00 100 949.2
20260506061027 15 219 4.8 22.5 0.00 0.00 0.00 100 949.2
20260506060824 15 236 4.8 32.2 0.00 0.00 0.00 100 949.2
20260506060723 15 234 4.8 32.2 0.00 0.00 0.00 100 949.2
20260506060621 15 233 4.8 32.2 0.00 0.00 0.00 100 949.1
20260506060418 15 0 1.6 12.9 0.00 0.00 0.00 100 949.2
20260506060215 15 226 3.2 16.1 0.00 0.00 0.00 100 949.2
20260506060114 15 229 3.2 16.1 0.00 0.00 0.00 100 949.1
20260506051248 13 281 9.7 24.1 0.00 0.00 0.00 100 948.6
20260506051147 13 273 8.0 24.1 0.00 0.00 0.00 100 948.4
20260506051044 13 260 6.4 22.5 0.00 0.00 0.00 100 948.3
20260506050842 13 231 4.8 24.1 0.00 0.00 0.00 100 948.4
20260506050638 13 220 4.8 24.1 0.00 0.00 0.00 100 948.2
20260506050538 13 229 6.4 24.1 0.00 0.00 0.00 100 948.2
20260506050435 13 232 6.4 24.1 0.00 0.00 0.00 100 948.3
20260506050231 13 235 6.4 29.0 0.00 0.00 0.00 100 948.3
20260506045013 13 236 8.0 33.8 0.00 0.00 0.00 100 948.3
20260506044810 13 241 11.3 51.5 0.00 0.00 0.00 100 948.4
20260506044710 13 244 9.7 51.5 0.00 0.00 0.00 100 948.3
20260506044607 12 244 11.3 51.5 0.00 0.00 0.00 100 948.5
20260506044405 12 241 9.7 51.5 0.00 0.00 0.00 100 948.3
20260506044202 12 234 9.7 43.5 0.00 0.00 0.00 100 948.3
20260506044101 12 239 9.7 43.5 0.00 0.00 0.00 100 948.2
20260506043959 12 240 9.7 43.5 0.00 0.00 0.00 100 948.3
20260506043756 12 249 11.3 46.7 0.00 0.00 0.00 100 948.2
20260506043552 12 243 9.7 46.7 0.00 0.00 0.00 100 948.2
20260506043451 12 242 9.7 46.7 0.00 0.00 0.00 100 948.4
20260506043349 12 232 8.0 33.8 0.00 0.00 0.00 100 948.1
20260506043146 12 228 6.4 25.7 0.00 0.00 0.00 100 948.2
20260506042943 12 237 6.4 38.6 0.00 0.00 0.00 100 948.2
20260506042842 12 237 6.4 38.6 0.00 0.00 0.00 100 948.2
20260506042739 12 243 6.4 38.6 0.00 0.00 0.00 100 948.3
20260506042537 12 239 6.4 24.1 0.00 0.00 0.00 100 948.1
20260506042333 12 237 6.4 32.2 0.00 0.00 0.00 100 948.1
20260506042233 12 228 6.4 32.2 0.00 0.00 0.00 100 948.1
20260506042131 12 225 6.4 32.2 0.00 0.00 0.00 100 947.9
20260506041928 13 227 6.4 33.8 0.00 0.00 0.00 100 948.0
20260506041725 12 228 6.4 33.8 0.00 0.00 0.00 100 948.0
20260506041625 12 228 6.4 33.8 0.00 0.00 0.00 100 948.0
20260506041522 12 220 6.4 24.1 0.00 0.00 0.00 100 948.0
20260506041319 13 222 4.8 24.1 0.00 0.00 0.00 100 948.1
20260506041116 13 232 6.4 24.1 0.00 0.00 0.00 100 947.9
20260506041016 13 234 4.8 33.8 0.00 0.00 0.00 100 948.1
20260506040914 13 225 4.8 33.8 0.00 0.00 0.00 100 948.0
20260506040711 13 223 4.8 33.8 0.00 0.00 0.00 100 947.9
20260506040508 13 236 4.8 19.3 0.00 0.00 0.00 100 947.8
20260506040408 13 226 4.8 19.3 0.00 0.00 0.00 100 948.0
20260506040306 13 223 4.8 20.9 0.00 0.00 0.00 100 948.0
20260506035859 13 259 3.2 19.3 0.00 0.00 0.00 100 947.9
20260506035759 13 260 3.2 20.9 0.00 0.00 0.00 100 947.8
20260506035656 13 233 3.2 32.2 0.00 0.00 0.00 100 948.0
20260506035453 13 0 3.2 32.2 0.00 0.00 0.00 100 947.9
20260506035250 13 237 4.8 19.3 0.00 0.00 0.00 100 947.7
20260506035149 13 226 6.4 29.0 0.00 0.00 0.00 100 947.9
20260506035047 13 239 6.4 33.8 0.00 0.00 0.00 100 947.9
20260506034844 13 242 8.0 33.8 0.00 0.00 0.00 100 947.9
20260506034641 13 238 8.0 32.2 0.00 0.00 0.00 100 947.7
20260506034541 13 237 8.0 35.4 0.00 0.00 0.00 100 948.1
20260506034439 13 238 8.0 35.4 0.00 0.00 0.00 100 948.0
20260506034236 13 235 6.4 35.4 0.00 0.00 0.00 100 948.0
20260506034034 13 233 3.2 19.3 0.00 0.00 0.00 100 948.2
20260506033933 13 233 4.8 19.3 0.00 0.00 0.00 100 948.2
20260506033831 13 234 4.8 19.3 0.00 0.00 0.00 100 948.2
20260506033627 13 221 3.2 20.9 0.00 0.00 0.00 100 948.0
20260506033425 13 216 3.2 14.5 0.00 0.00 0.00 100 948.1
20260506033324 13 213 3.2 14.5 0.00 0.00 0.00 100 948.1
20260506033221 13 228 3.2 16.1 0.00 0.00 0.00 100 948.2
20260506033018 13 226 3.2 16.1 0.00 0.00 0.00 100 948.2
20260506032815 13 217 3.2 19.3 0.00 0.00 0.00 100 948.1
20260506032714 13 219 3.2 19.3 0.00 0.00 0.00 100 948.2
20260506032612 13 221 4.8 19.3 0.00 0.00 0.00 100 948.3
20260506032409 13 221 3.2 19.3 0.00 0.00 0.00 100 948.2
20260506032205 13 222 3.2 19.3 0.00 0.00 0.00 100 948.2
20260506032105 13 220 3.2 17.7 0.00 0.00 0.00 100 948.2
20260506032002 13 222 3.2 16.1 0.00 0.00 0.00 100 948.3
20260506031759 13 219 3.2 19.3 0.00 0.00 0.00 100 948.2
20260506031556 13 221 3.2 19.3 0.00 0.00 0.00 100 948.3
20260506031455 13 224 3.2 17.7 0.00 0.00 0.00 100 948.3
20260506031353 13 230 3.2 17.7 0.00 0.00 0.00 100 948.2
20260506031149 13 232 3.2 17.7 0.00 0.00 0.00 100 948.3
20260506030946 13 244 3.2 16.1 0.00 0.00 0.00 100 948.3
20260506030832 13 241 3.2 16.1 0.00 0.00 0.00 100 948.3
20260506030730 13 236 3.2 16.1 0.00 0.00 0.00 100 948.3
20260506030527 13 218 3.2 19.3 0.00 0.00 0.00 100 948.3
20260506030325 13 221 3.2 19.3 0.00 0.00 0.00 100 948.3
20260506030224 13 221 3.2 19.3 0.00 0.00 0.00 100 948.4
20260506030121 13 221 3.2 12.9 0.00 0.00 0.00 100 948.2
20260506025918 13 0 3.2 8.0 0.00 0.00 0.00 100 948.3
20260506025715 13 255 4.8 16.1 0.00 0.00 0.00 100 948.3
20260506025614 13 254 6.4 20.9 0.00 0.00 0.00 100 948.3
20260506025512 13 252 6.4 20.9 0.00 0.00 0.00 100 948.5
20260506025308 13 234 4.8 20.9 0.00 0.00 0.00 100 948.4
20260506025106 13 221 3.2 20.9 0.00 0.00 0.00 100 948.4
20260506025005 13 216 3.2 20.9 0.00 0.00 0.00 100 948.4
20260506024903 13 210 3.2 12.9 0.00 0.00 0.00 100 948.4
20260506024700 13 217 3.2 11.3 0.00 0.00 0.00 100 948.5
20260506024456 13 218 3.2 11.3 0.00 0.00 0.00 100 948.4
20260506024356 13 227 3.2 11.3 0.00 0.00 0.00 100 948.3
20260506024254 13 211 3.2 20.9 0.00 0.00 0.00 100 948.4
20260506024051 13 212 3.2 20.9 0.00 0.00 0.00 100 948.2
20260506023847 13 207 3.2 20.9 0.00 0.00 0.00 100 948.3
20260506023746 13 201 3.2 25.7 0.00 0.00 0.00 100 948.3
20260506023644 13 205 3.2 25.7 0.00 0.00 0.00 100 948.4
20260506023442 13 201 3.2 25.7 0.00 0.00 0.00 100 948.4
20260506023238 13 227 3.2 11.3 0.00 0.00 0.00 100 948.4
20260506023138 13 222 3.2 12.9 0.00 0.00 0.00 100 948.4
20260506023035 13 202 3.2 20.9 0.00 0.00 0.00 100 948.5
20260506022832 13 178 4.8 20.9 0.00 0.00 0.00 100 948.4
20260506022629 13 174 3.2 16.1 0.00 0.00 0.00 100 948.4
20260506022528 13 0 1.6 8.0 0.00 0.00 0.00 100 948.5
20260506022426 14 0 1.6 8.0 0.00 0.00 0.00 100 948.5
20260506022222 14 246 3.2 12.9 0.00 0.00 0.00 100 948.4
20260506022019 14 265 3.2 12.9 0.00 0.00 0.00 100 948.3
20260506021919 14 235 3.2 12.9 0.00 0.00 0.00 100 948.6
20260506021816 14 244 3.2 12.9 0.00 0.00 0.00 100 948.5
20260506021614 14 187 1.6 9.7 0.00 0.00 0.00 100 948.5
20260506021411 14 128 3.2 9.7 0.00 0.00 0.00 100 948.4
20260506021310 14 130 3.2 9.7 0.00 0.00 0.00 100 948.4
20260506021208 14 135 3.2 9.7 0.00 0.00 0.00 100 948.4
20260506021004 14 296 3.2 8.0 0.00 0.00 0.00 100 948.4
20260506020801 14 0 3.2 8.0 0.00 0.00 0.00 100 948.4
20260506020700 15 0 3.2 8.0 0.00 0.00 0.00 100 948.4
20260506020558 15 227 3.2 11.3 0.00 0.00 0.00 100 948.5
20260506020354 15 178 6.4 24.1 0.00 0.00 0.00 100 948.4
20260506020152 15 166 9.7 24.1 0.00 0.00 0.00 100 948.4
20260506020051 15 167 9.7 24.1 0.00 0.00 0.00 100 948.3
20260506015949 15 170 9.7 24.1 0.00 0.00 0.00 100 948.2
20260506015746 15 173 8.0 20.9 0.00 0.00 0.00 100 948.4
20260506015543 15 176 8.0 22.5 0.00 0.00 0.00 100 948.3
20260506015442 15 176 6.4 22.5 0.00 0.00 0.00 100 948.2
20260506015340 15 176 6.4 22.5 0.00 0.00 0.00 100 948.2
20260506015137 15 200 3.2 12.9 0.00 0.00 0.00 100 948.2
20260506014933 15 181 4.8 16.1 0.00 0.00 0.00 100 948.2
20260506014833 15 182 4.8 16.1 0.00 0.00 0.00 100 948.3
20260506014730 15 171 6.4 19.3 0.00 0.00 0.00 100 948.4
20260506014528 15 173 4.8 19.3 0.00 0.00 0.00 100 948.3
20260506014325 15 170 8.0 33.8 0.00 0.00 0.00 100 948.4
20260506014224 15 167 6.4 33.8 0.00 0.00 0.00 100 948.2
20260506014121 15 171 6.4 33.8 0.00 0.00 0.00 100 948.2
20260506013918 15 180 4.8 24.1 0.00 0.00 0.00 100 948.3
20260506013715 15 200 4.8 24.1 0.00 0.00 0.00 100 948.3
20260506013615 15 195 4.8 24.1 0.00 0.00 0.00 100 948.3
20260506013512 15 213 3.2 19.3 0.00 0.00 0.00 100 948.4
20260506013310 15 186 4.8 19.3 0.00 0.00 0.00 100 948.1
20260506013106 15 184 6.4 22.5 0.00 0.00 0.00 100 948.1
20260506013006 15 187 6.4 22.5 0.00 0.00 0.00 100 948.1
20260506012904 15 184 6.4 19.3 0.00 0.00 0.00 100 948.1
20260506012701 15 196 6.4 25.7 0.00 0.00 0.00 100 948.1
20260506012458 15 199 6.4 25.7 0.00 0.00 0.00 100 948.0
20260506012357 15 192 8.0 35.4 0.00 0.00 0.00 100 947.8
20260506012255 15 189 8.0 35.4 0.00 0.00 0.00 100 947.8
20260506012051 15 182 6.4 35.4 0.00 0.00 0.00 100 948.0
20260506011848 15 192 6.4 24.1 0.00 0.00 0.00 100 947.8
20260506011748 15 197 4.8 24.1 0.00 0.00 0.00 100 947.8
20260506011646 15 198 6.4 24.1 0.00 0.00 0.00 100 947.9
20260506011443 15 187 6.4 20.9 0.00 0.00 0.00 100 947.9
20260506011240 15 190 6.4 20.9 0.00 0.00 0.00 100 947.9
20260506011140 15 192 6.4 22.5 0.00 0.00 0.00 100 947.9
20260506011038 15 196 6.4 25.7 0.00 0.00 0.00 100 947.9
20260506010835 15 190 9.7 30.6 0.00 0.00 0.00 100 947.9
20260506010631 15 191 6.4 30.6 0.00 0.00 0.00 100 948.0
20260506010531 15 198 6.4 25.7 0.00 0.00 0.00 100 948.0
20260506010429 15 193 6.4 32.2 0.00 0.00 0.00 100 947.9
20260506010226 15 187 8.0 32.2 0.00 0.00 0.00 100 948.0
20260506010023 15 188 8.0 32.2 0.00 0.00 0.00 100 948.0
20260506005922 15 191 6.4 27.4 0.00 0.00 0.00 100 947.9
20260506005820 15 190 6.4 27.4 0.00 0.00 0.00 100 948.0
20260506005617 15 202 4.8 20.9 0.00 0.00 0.00 100 948.1
20260506005413 15 187 4.8 25.7 0.00 0.00 0.00 100 948.0
20260506005312 15 188 6.4 25.7 0.00 0.00 0.00 100 948.0
20260506005210 15 191 6.4 25.7 0.00 0.00 0.00 100 948.0
20260506005006 15 182 8.0 25.7 0.00 0.00 0.00 100 948.1
20260506004803 15 177 6.4 25.7 0.00 0.00 0.00 100 948.1
20260506004703 15 179 4.8 25.7 0.00 0.00 0.00 100 948.2
20260506004600 15 194 4.8 20.9 0.00 0.00 0.00 100 948.2
20260506004357 15 206 4.8 30.6 0.00 0.00 0.00 100 948.1
20260506004153 15 202 4.8 30.6 0.00 0.00 0.00 100 948.2
20260506004053 15 210 4.8 20.9 0.00 0.00 0.00 100 948.1
20260506003855 15 195 4.8 19.3 0.00 0.00 0.00 100 948.3
20260506003652 15 191 6.4 25.7 0.00 0.00 0.00 100 948.2
20260506003552 15 191 6.4 27.4 0.00 0.00 0.00 100 948.2
20260506003450 15 192 6.4 27.4 0.00 0.00 0.00 100 948.1
20260506003246 15 186 6.4 27.4 0.00 0.00 0.00 100 948.0
20260506003043 15 188 4.8 22.5 0.00 0.00 0.00 100 948.2
20260506002942 15 193 6.4 22.5 0.00 0.00 0.00 100 948.1
20260506002840 15 183 6.4 24.1 0.00 0.00 0.00 100 948.1
20260506002636 15 178 6.4 24.1 0.00 0.00 0.00 100 948.2
20260506002433 15 184 8.0 29.0 0.00 0.00 0.00 100 948.1
20260506002319 16 186 6.4 29.0 0.00 0.00 0.00 100 948.1
20260506002217 16 183 8.0 29.0 0.00 0.00 0.00 100 948.0
20260506002014 16 185 8.0 32.2 0.00 0.00 0.00 100 948.0
20260506001810 16 173 11.3 37.0 0.00 0.00 0.00 100 948.1
20260506001710 16 170 9.7 37.0 0.00 0.00 0.00 100 948.1
20260506001607 16 171 11.3 37.0 0.00 0.00 0.00 100 948.1
20260506001403 16 172 9.7 32.2 0.00 0.00 0.00 100 948.2
20260506001201 16 175 9.7 35.4 0.00 0.00 0.00 100 948.2
20260506001100 16 178 6.4 35.4 0.00 0.00 0.00 100 948.2
20260506000957 16 184 6.4 35.4 0.00 0.00 0.00 100 948.1
20260506000754 16 179 8.0 27.4 0.00 0.00 0.00 100 948.2
20260506000551 16 176 8.0 27.4 0.00 0.00 0.00 100 948.3
20260506000450 16 174 6.4 27.4 0.00 0.00 0.00 100 948.2
20260506000348 16 177 6.4 27.4 0.00 0.00 0.00 100 948.1
20260506000145 16 178 6.4 25.7 0.00 0.00 0.00 100 948.2
20260505235941 16 178 6.4 22.5 0.00 0.00 0.00 100 948.3
20260505235841 16 175 6.4 22.5 0.00 0.00 0.00 100 948.3
20260505235739 16 176 6.4 30.6 0.00 0.00 0.00 100 948.3
20260505235535 16 183 6.4 30.6 0.00 0.00 0.00 100 948.2
20260505235332 16 185 8.0 25.7 0.00 0.00 0.00 100 948.3
20260505235232 16 174 9.7 30.6 0.00 0.00 0.00 100 948.3
20260505235130 16 174 9.7 30.6 0.00 0.00 0.00 100 948.4
20260505234927 16 174 9.7 30.6 0.00 0.00 0.00 100 948.3
20260505234724 16 174 9.7 27.4 0.00 0.00 0.00 100 948.4
20260505234623 16 171 11.3 27.4 0.00 0.00 0.00 100 948.3
20260505234520 16 171 8.0 17.7 0.00 0.00 0.00 100 948.5
20260505234317 16 176 6.4 19.3 0.00 0.00 0.00 100 948.4
20260505234114 16 164 11.3 35.4 0.00 0.00 0.00 100 948.5
20260505234013 16 163 11.3 35.4 0.00 0.00 0.00 100 948.4
20260505233910 16 162 12.9 35.4 0.00 0.00 0.00 100 948.5
20260505233707 16 163 8.0 24.1 0.00 0.00 0.00 100 948.5
20260505233505 15 169 6.4 22.5 0.00 0.00 0.00 100 948.5
20260505233404 15 186 3.2 9.7 0.00 0.00 0.00 100 948.6
20260505233302 15 216 3.2 11.3 0.00 0.00 0.00 100 948.5
20260505233059 15 54 6.4 12.9 0.00 0.00 0.00 100 948.6
20260505232856 15 95 6.4 12.9 0.00 0.00 0.00 100 948.5
20260505232755 15 122 6.4 12.9 0.00 0.00 0.00 100 948.6
20260505232652 15 137 4.8 16.1 0.00 0.00 0.00 100 948.6
20260505232449 16 147 6.4 19.3 0.00 0.00 0.00 100 948.7
20260505232246 16 163 6.4 19.3 0.00 0.00 0.00 100 948.6
20260505232145 15 177 6.4 19.3 0.00 0.00 0.00 100 948.5
20260505232043 15 164 6.4 19.3 0.00 0.00 0.00 100 948.8
20260505231839 15 149 6.4 17.7 0.00 0.00 0.00 100 948.6
20260505231636 14 235 4.8 14.5 0.00 0.00 0.00 100 948.6
20260505231535 13 270 4.8 11.3 0.00 0.00 0.00 100 948.7
20260505231433 13 324 6.4 11.3 0.00 0.00 0.00 100 948.7
20260505231229 13 355 6.4 9.7 0.00 0.00 0.00 100 948.5
20260505231026 13 352 6.4 12.9 0.00 0.00 0.00 100 948.6
20260505230925 13 346 9.7 20.9 0.00 0.00 0.00 100 948.7
20260505230823 14 344 9.7 20.9 0.00 0.00 0.00 100 948.6
20260505230620 14 328 8.0 20.9 0.00 0.00 0.00 100 948.5
20260505230416 15 286 6.4 19.3 0.00 0.00 0.00 100 948.5
20260505230315 15 192 8.0 22.5 0.00 0.00 0.00 100 948.5
20260505230213 15 181 9.7 22.5 0.00 0.00 0.00 100 948.6
20260505230011 16 176 8.0 22.5 0.00 0.00 0.00 100 948.4
20260505225807 16 217 6.4 19.3 0.00 0.00 0.00 100 948.5
20260505225706 16 246 8.0 24.1 0.00 0.00 0.00 100 948.4
20260505225604 15 258 8.0 24.1 0.00 0.00 0.00 100 948.4
20260505225400 15 262 8.0 24.1 0.00 0.00 0.00 100 948.5
20260505225157 15 166 4.8 12.9 0.00 0.00 0.00 100 948.6
20260505225057 15 163 3.2 12.9 0.00 0.00 0.00 100 948.6
20260505224955 15 187 3.2 12.9 0.00 0.00 0.00 100 948.5
20260505224752 15 173 3.2 12.9 0.00 0.00 0.00 100 948.5
20260505224549 15 271 4.8 14.5 0.00 0.00 0.00 100 948.6
20260505224448 15 292 4.8 14.5 0.00 0.00 0.00 100 948.5
20260505224345 15 309 6.4 14.5 0.00 0.00 0.00 100 948.5
20260505224142 13 341 6.4 14.5 0.00 0.00 0.00 100 948.5
20260505223939 13 343 6.4 11.3 0.00 0.00 0.00 100 948.6
20260505223838 13 345 6.4 11.3 0.00 0.00 0.00 100 948.5
20260505223736 13 351 8.0 11.3 0.00 0.00 0.00 100 948.6
20260505223532 13 352 8.0 11.3 0.00 0.00 0.00 100 948.7
20260505223329 13 342 6.4 9.7 0.00 0.00 0.00 100 948.6
20260505223229 13 330 4.8 9.7 0.00 0.00 0.00 100 948.6
20260505223127 13 332 3.2 8.0 0.00 0.00 0.00 100 948.7
20260505222924 13 354 3.2 6.4 0.00 0.00 0.00 100 948.6
20260505222722 13 4 3.2 6.4 0.00 0.00 0.00 100 948.5
20260505222621 13 8 3.2 4.8 0.00 0.00 0.00 100 948.6
20260505222519 13 45 3.2 4.8 0.00 0.00 0.00 100 948.6
20260505222316 13 55 3.2 4.8 0.00 0.00 0.00 100 948.7
20260505222113 13 56 1.6 4.8 0.00 0.00 0.00 100 948.7
20260505222012 13 73 1.6 6.4 0.00 0.00 0.00 100 948.9
20260505221909 13 83 1.6 6.4 0.00 0.00 0.00 100 948.8
20260505221707 14 75 4.8 8.0 0.00 0.00 0.00 100 948.9
20260505221503 14 75 4.8 8.0 0.00 0.00 0.00 100 948.9
20260505221403 14 82 4.8 8.0 0.00 0.00 0.00 100 948.9
20260505221300 14 83 4.8 9.7 0.00 0.00 0.00 100 948.9
20260505221058 14 78 6.4 9.7 0.00 0.00 0.00 100 948.9
20260505220855 14 79 4.8 9.7 0.00 0.00 0.00 100 949.1
20260505220754 14 76 4.8 6.4 0.00 0.00 0.00 100 949.0
20260505220651 14 72 3.2 6.4 0.00 0.00 0.00 100 949.1
20260505220448 14 64 1.6 4.8 0.00 0.00 0.00 100 949.1
20260505220245 14 353 1.6 4.8 0.00 0.00 0.00 100 949.0
20260505220145 14 349 1.6 4.8 0.00 0.00 0.00 100 949.1
20260505220043 14 357 3.2 4.8 0.00 0.00 0.00 100 949.2
20260505215840 15 54 4.8 8.0 0.00 0.00 0.00 100 949.1
20260505215637 15 62 6.4 8.0 0.00 0.00 0.00 100 949.1
20260505215536 15 59 6.4 8.0 0.00 0.00 0.00 100 949.3
20260505215435 15 55 6.4 8.0 0.00 0.00 0.00 100 949.2
20260505215231 15 63 4.8 8.0 0.00 0.00 0.00 100 949.4
20260505215029 15 97 3.2 8.0 0.00 0.00 0.00 100 949.4
20260505214928 15 0 3.2 8.0 0.00 0.00 0.00 100 949.3
20260505214825 15 53 4.8 9.7 0.00 0.00 0.00 100 949.4
20260505214622 15 51 4.8 9.7 0.00 0.00 0.00 100 949.3
20260505214405 16 86 4.8 9.7 0.00 0.00 0.00 100 949.2
20260505214305 16 121 4.8 9.7 0.00 0.00 0.00 100 949.3
20260505214202 16 129 6.4 9.7 0.00 0.00 0.00 100 949.3
20260505213959 17 154 6.4 24.1 0.00 0.00 0.00 100 949.4
20260505213755 17 157 8.0 24.1 0.00 0.00 0.00 100 949.3
20260505213655 17 158 8.0 24.1 0.00 0.00 0.00 100 949.3
20260505213553 17 157 9.7 22.5 0.00 0.00 0.00 100 949.3
20260505213350 17 155 9.7 24.1 0.00 0.00 0.00 100 949.4
20260505213146 17 163 9.7 25.7 0.00 0.00 0.00 100 949.3
20260505213046 17 165 9.7 25.7 0.00 0.00 0.00 100 949.5
20260505212943 17 168 9.7 25.7 0.00 0.00 0.00 100 949.5
20260505212740 17 165 6.4 22.5 0.00 0.00 0.00 100 949.4
20260505212537 17 173 4.8 22.5 0.00 0.00 0.00 100 949.6
20260505212437 16 172 4.8 14.5 0.00 0.00 0.00 100 949.6
20260505212334 17 170 6.4 16.1 0.00 0.00 0.00 100 949.5
20260505212132 17 162 6.4 22.5 0.00 0.00 0.00 100 949.5
20260505211928 17 173 4.8 20.9 0.00 0.00 0.00 100 949.6
20260505211827 17 180 4.8 16.1 0.00 0.00 0.00 100 949.6
20260505211724 17 184 4.8 16.1 0.00 0.00 0.00 100 949.5
20260505211522 17 179 4.8 16.1 0.00 0.00 0.00 100 949.6
20260505211318 17 176 8.0 22.5 0.00 0.00 0.00 100 949.6
20260505211218 17 173 9.7 22.5 0.00 0.00 0.00 100 949.6
20260505211115 17 173 8.0 22.5 0.00 0.00 0.00 100 949.7
20260505210912 17 178 6.4 22.5 0.00 0.00 0.00 100 949.6
20260505210709 17 177 6.4 27.4 0.00 0.00 0.00 100 949.7
20260505210609 17 178 6.4 27.4 0.00 0.00 0.00 100 949.8
20260505210506 17 177 6.4 27.4 0.00 0.00 0.00 100 949.7
20260505210302 17 189 4.8 22.5 0.00 0.00 0.00 100 949.6
20260505210059 17 182 6.4 24.1 0.00 0.00 0.00 100 949.8
20260505205959 17 184 6.4 24.1 0.00 0.00 0.00 100 949.7
20260505205856 17 180 6.4 24.1 0.00 0.00 0.00 100 949.7
20260505205653 17 185 4.8 17.7 0.00 0.00 0.00 100 949.8
20260505205450 17 191 6.4 25.7 0.00 0.00 0.00 100 949.8
20260505205349 17 169 6.4 25.7 0.00 0.00 0.00 100 949.8
20260505205247 17 169 6.4 25.7 0.00 0.00 0.00 100 949.8
20260505205045 17 172 3.2 20.9 0.00 0.00 0.00 100 949.7
20260505204842 17 180 4.8 17.7 0.00 0.00 0.00 100 949.8
20260505204741 17 171 4.8 17.7 0.00 0.00 0.00 100 949.8
20260505204638 17 173 4.8 17.7 0.00 0.00 0.00 100 949.8
20260505204435 17 186 3.2 11.3 0.00 0.00 0.00 100 949.8
20260505204232 17 205 3.2 11.3 0.00 0.00 0.00 100 949.8
20260505204131 17 190 3.2 16.1 0.00 0.00 0.00 100 949.8
20260505204029 17 191 4.8 16.1 0.00 0.00 0.00 100 949.8
20260505203826 17 188 4.8 20.9 0.00 0.00 0.00 100 949.8
20260505203623 17 189 3.2 20.9 0.00 0.00 0.00 100 949.8
20260505203522 17 189 3.2 9.7 0.00 0.00 0.00 100 949.7
20260505203419 17 187 3.2 14.5 0.00 0.00 0.00 100 949.8
20260505203216 17 177 6.4 24.1 0.00 0.00 0.00 100 949.7
20260505203014 17 176 8.0 24.1 0.00 0.00 0.00 100 949.9
20260505202913 17 180 4.8 20.9 0.00 0.00 0.00 100 949.8
20260505202810 17 182 3.2 20.9 0.00 0.00 0.00 100 949.9
20260505202607 17 172 3.2 19.3 0.00 0.00 0.00 100 949.8
20260505202404 17 178 4.8 19.3 0.00 0.00 0.00 100 949.8
20260505202306 17 183 4.8 16.1 0.00 0.00 0.00 100 949.8
20260505202202 17 183 4.8 16.1 0.00 0.00 0.00 100 949.9
20260505201958 17 174 6.4 16.1 0.00 0.00 0.00 100 949.8
20260505201755 17 173 6.4 16.1 0.00 0.00 0.00 100 949.8
20260505201655 17 174 4.8 16.1 0.00 0.00 0.00 100 949.9
20260505201552 17 177 4.8 16.1 0.00 0.00 0.00 100 949.9
20260505201350 17 178 4.8 14.5 0.00 0.00 0.00 100 949.9
20260505201146 18 177 6.4 20.9 0.00 0.00 0.00 100 949.9
20260505201046 18 179 6.4 20.9 0.00 0.00 0.00 100 949.9
20260505200943 18 174 9.7 22.5 0.00 0.00 0.00 100 949.9
20260505200741 18 173 9.7 22.5 0.00 0.00 0.00 100 949.9
20260505200538 18 171 6.4 20.9 0.00 0.00 0.00 100 949.9
20260505200438 18 175 6.4 20.9 0.00 0.00 0.00 100 949.9
20260505200336 18 173 6.4 20.9 0.00 0.00 0.00 100 949.9
20260505200133 18 170 8.0 22.5 0.00 0.00 0.00 100 949.9
20260505195931 18 171 8.0 22.5 0.00 0.00 0.00 100 950.0
20260505195830 18 182 6.4 22.5 0.00 0.00 0.00 100 949.9
20260505195727 18 183 4.8 19.3 0.00 0.00 0.00 100 949.9
20260505195525 18 173 6.4 19.3 0.00 0.00 0.00 100 949.8
20260505195321 18 173 6.4 17.7 0.00 0.00 0.00 100 949.8
20260505195220 18 176 6.4 17.7 0.00 0.00 0.00 100 950.0
20260505195118 17 184 3.2 17.7 0.00 0.00 0.00 100 950.0
20260505194914 17 187 3.2 14.5 0.00 0.00 0.00 100 949.9
20260505194712 17 196 1.6 14.5 0.00 0.00 0.00 100 949.9
20260505194611 17 0 1.6 6.4 0.00 0.00 0.00 100 950.0
20260505194508 17 0 1.6 6.4 0.00 0.00 0.00 100 950.0
20260505194305 18 204 3.2 14.5 0.00 0.00 0.00 100 949.9
20260505194102 18 200 3.2 14.5 0.00 0.00 0.00 100 950.0
20260505194002 18 194 3.2 14.5 0.00 0.00 0.00 100 949.9
20260505193859 18 195 3.2 11.3 0.00 0.00 0.00 100 950.0
20260505193656 18 190 3.2 22.5 0.00 0.00 0.00 100 949.9
20260505193453 18 193 3.2 22.5 0.00 0.00 0.00 100 949.8
20260505193353 18 200 3.2 9.7 0.00 0.00 0.00 100 949.9
20260505193251 18 191 3.2 9.7 0.00 0.00 0.00 100 949.9
20260505193048 18 180 3.2 9.7 0.00 0.00 0.00 100 949.9
20260505192844 18 175 4.8 17.7 0.00 0.00 0.00 100 949.9
20260505192743 18 176 4.8 17.7 0.00 0.00 0.00 100 949.9
20260505192641 18 178 4.8 17.7 0.00 0.00 0.00 100 949.9
20260505192438 18 215 4.8 12.9 0.00 0.00 0.00 100 950.0
20260505192235 18 197 4.8 25.7 0.00 0.00 0.00 100 950.0
20260505192134 18 191 6.4 25.7 0.00 0.00 0.00 100 950.0
20260505192032 18 177 6.4 25.7 0.00 0.00 0.00 100 949.9
20260505191829 18 174 6.4 17.7 0.00 0.00 0.00 100 950.0
20260505191625 18 173 4.8 16.1 0.00 0.00 0.00 100 949.9
20260505191524 18 175 4.8 17.7 0.00 0.00 0.00 100 950.1
20260505191422 18 183 4.8 17.7 0.00 0.00 0.00 100 950.1
20260505191219 18 181 4.8 20.9 0.00 0.00 0.00 100 950.0
20260505191016 18 188 4.8 20.9 0.00 0.00 0.00 100 950.0
20260505190915 18 191 3.2 20.9 0.00 0.00 0.00 100 950.0
20260505190812 18 195 3.2 14.5 0.00 0.00 0.00 100 950.1
20260505190608 18 209 1.6 14.5 0.00 0.00 0.00 100 950.0
20260505190355 18 177 3.2 12.9 0.00 0.00 0.00 100 950.1
20260505190255 18 174 3.2 12.9 0.00 0.00 0.00 100 950.1
20260505190152 18 174 3.2 12.9 0.00 0.00 0.00 100 950.1
20260505185949 18 174 1.6 8.0 0.00 0.00 0.00 100 950.0
20260505185746 18 0 1.6 9.7 0.00 0.00 0.00 100 950.0
20260505185645 18 0 3.2 9.7 0.00 0.00 0.00 100 950.0
20260505185543 18 204 3.2 12.9 0.00 0.00 0.00 100 950.0
20260505185339 18 226 3.2 12.9 0.00 0.00 0.00 100 950.0
20260505185136 18 205 3.2 9.7 0.00 0.00 0.00 100 950.0
20260505185036 18 209 3.2 9.7 0.00 0.00 0.00 100 949.9
20260505184934 18 190 3.2 9.7 0.00 0.00 0.00 100 950.0
20260505184731 18 0 1.6 4.8 0.00 0.00 0.00 100 950.0
20260505184528 18 186 3.2 17.7 0.00 0.00 0.00 100 950.0
20260505184427 18 192 3.2 17.7 0.00 0.00 0.00 100 950.0
20260505184325 18 195 3.2 17.7 0.00 0.00 0.00 100 950.0
20260505184122 18 215 3.2 9.7 0.00 0.00 0.00 100 950.0
20260505183919 18 182 3.2 11.3 0.00 0.00 0.00 100 949.9
20260505183818 18 173 4.8 14.5 0.00 0.00 0.00 100 949.8
20260505183716 18 178 4.8 16.1 0.00 0.00 0.00 100 949.8
20260505183513 18 188 3.2 17.7 0.00 0.00 0.00 100 949.8
20260505183310 18 188 3.2 25.7 0.00 0.00 0.00 100 949.8
20260505183209 19 191 3.2 25.7 0.00 0.00 0.00 100 949.8
20260505183107 19 185 4.8 25.7 0.00 0.00 0.00 100 949.8
20260505182903 18 194 3.2 16.1 0.00 0.00 0.00 100 949.8
20260505182701 18 194 1.6 16.1 0.00 0.00 0.00 100 949.8
20260505182600 18 204 1.6 9.7 0.00 0.00 0.00 100 949.9
20260505182457 18 198 1.6 12.9 0.00 0.00 0.00 100 949.9
20260505182254 19 192 3.2 12.9 0.00 0.00 0.00 100 949.9
20260505182051 19 202 3.2 12.9 0.00 0.00 0.00 100 949.9
20260505181950 19 206 3.2 14.5 0.00 0.00 0.00 100 949.9
20260505181848 19 201 3.2 14.5 0.00 0.00 0.00 100 949.8
20260505181644 19 194 3.2 14.5 0.00 0.00 0.00 100 949.9
20260505181441 19 186 3.2 14.5 0.00 0.00 0.00 100 949.9
20260505181341 19 174 4.8 14.5 0.00 0.00 0.00 100 949.9
20260505181239 19 176 4.8 14.5 0.00 0.00 0.00 100 949.9
20260505181036 19 173 4.8 14.5 0.00 0.00 0.00 100 949.8
20260505180833 19 184 3.2 22.5 0.00 0.00 0.00 100 949.8
20260505180732 19 183 4.8 22.5 0.00 0.00 0.00 100 949.8
20260505180629 20 178 4.8 22.5 0.00 0.00 0.00 100 949.8
20260505180426 20 174 6.4 22.5 0.00 0.00 0.00 100 949.9
20260505180223 20 174 6.4 24.1 0.00 0.00 0.00 100 949.8
20260505180122 20 178 6.4 24.1 0.00 0.00 0.00 100 949.8
20260505180020 20 179 6.4 24.1 0.00 0.00 0.00 100 949.8
20260505175818 20 188 6.4 19.3 0.00 0.00 0.00 100 949.8
20260505175614 20 196 4.8 19.3 0.00 0.00 0.00 100 949.9
20260505175514 20 195 3.2 17.7 0.00 0.00 0.00 100 949.8
20260505175412 20 208 3.2 17.7 0.00 0.00 0.00 100 949.9
20260505175208 20 182 3.2 14.5 0.00 0.00 0.00 100 949.9
20260505175005 20 179 4.8 24.1 0.00 0.00 0.00 100 950.0
20260505174904 20 181 6.4 24.1 0.00 0.00 0.00 100 950.0
20260505174801 20 171 4.8 24.1 0.00 0.00 0.00 100 950.0
20260505174559 20 176 4.8 16.1 0.00 0.00 0.00 100 950.0
20260505174356 20 185 6.4 16.1 0.00 0.00 0.00 100 949.8
20260505174255 20 189 6.4 20.9 0.00 0.00 0.00 100 949.9
20260505174152 20 187 8.0 20.9 0.00 0.00 0.00 100 949.8
20260505173950 20 180 6.4 27.4 0.00 0.00 0.00 100 949.9
20260505173747 20 173 8.0 30.6 0.00 0.00 0.00 100 949.9
20260505173647 20 177 8.0 30.6 0.00 0.00 0.00 100 950.0
20260505173544 20 183 6.4 30.6 0.00 0.00 0.00 100 949.8
20260505173341 20 187 4.8 20.9 0.00 0.00 0.00 100 949.9
20260505173138 20 177 6.4 20.9 0.00 0.00 0.00 100 949.8
20260505173038 20 177 6.4 20.9 0.00 0.00 0.00 100 949.9
20260505172936 20 186 4.8 20.9 0.00 0.00 0.00 100 949.8
20260505172732 20 190 4.8 20.9 0.00 0.00 0.00 100 949.8
20260505172530 20 208 4.8 16.1 0.00 0.00 0.00 100 949.8
20260505172429 20 213 3.2 16.1 0.00 0.00 0.00 100 949.8
20260505172327 20 225 3.2 14.5 0.00 0.00 0.00 100 949.8
20260505172124 20 215 3.2 19.3 0.00 0.00 0.00 100 950.0
20260505171921 20 176 6.4 20.9 0.00 0.00 0.00 100 949.8
20260505171820 20 172 6.4 20.9 0.00 0.00 0.00 100 949.8
20260505171718 20 172 6.4 20.9 0.00 0.00 0.00 100 949.7
20260505171515 21 188 4.8 17.7 0.00 0.00 0.00 100 949.8
20260505171311 21 187 3.2 16.1 0.00 0.00 0.00 100 949.8
20260505171210 21 181 3.2 16.1 0.00 0.00 0.00 100 949.8
20260505171108 21 192 3.2 9.7 0.00 0.00 0.00 100 949.8
20260505170906 21 176 4.8 17.7 0.00 0.00 0.00 100 949.8
20260505170703 21 174 6.4 24.1 0.00 0.00 0.00 100 949.8
20260505170602 21 172 6.4 24.1 0.00 0.00 0.00 100 949.7
20260505170500 21 180 6.4 24.1 0.00 0.00 0.00 100 949.8
20260505170257 21 178 6.4 24.1 0.00 0.00 0.00 100 949.7
20260505170053 21 190 4.8 19.3 0.00 0.00 0.00 100 949.9
20260505165953 21 194 4.8 24.1 0.00 0.00 0.00 100 949.8
20260505165850 21 173 4.8 24.1 0.00 0.00 0.00 100 949.8
20260505165647 21 166 9.7 24.1 0.00 0.00 0.00 100 949.7
20260505165444 21 168 9.7 24.1 0.00 0.00 0.00 100 949.8
20260505165344 21 171 9.7 25.7 0.00 0.00 0.00 100 949.7
20260505165242 22 178 8.0 25.7 0.00 0.00 0.00 100 949.8
20260505165038 22 194 4.8 25.7 0.00 0.00 0.00 100 949.7
20260505164835 22 217 6.4 17.7 0.00 0.00 0.00 100 949.8
20260505164734 22 203 4.8 20.9 0.00 0.00 0.00 100 949.7
20260505164632 22 198 4.8 20.9 0.00 0.00 0.00 100 949.7
20260505164429 22 183 6.4 25.7 0.00 0.00 0.00 100 949.7
20260505164226 22 182 6.4 25.7 0.00 0.00 0.00 100 949.7
20260505164126 22 184 6.4 25.7 0.00 0.00 0.00 100 949.7
20260505164023 22 185 6.4 29.0 0.00 0.00 0.00 100 949.7
20260505163820 22 177 9.7 29.0 0.00 0.00 0.00 100 949.8
20260505163618 22 183 9.7 29.0 0.00 0.00 0.00 100 949.6
20260505163517 22 190 8.0 20.9 0.00 0.00 0.00 100 949.7
20260505163415 22 193 6.4 20.9 0.00 0.00 0.00 100 949.7
20260505163212 22 194 4.8 17.7 0.00 0.00 0.00 100 949.6
20260505163009 22 185 4.8 22.5 0.00 0.00 0.00 100 949.8
20260505162907 22 184 4.8 22.5 0.00 0.00 0.00 100 949.9
20260505162805 22 197 6.4 22.5 0.00 0.00 0.00 100 949.7
20260505162549 22 188 6.4 25.7 0.00 0.00 0.00 100 949.6
20260505162346 22 179 6.4 25.7 0.00 0.00 0.00 100 949.7
20260505162245 22 180 6.4 25.7 0.00 0.00 0.00 100 949.7
20260505162143 22 176 6.4 25.7 0.00 0.00 0.00 100 949.6
20260505161940 22 168 8.0 22.5 0.00 0.00 0.00 100 949.8
20260505161737 22 166 8.0 22.5 0.00 0.00 0.00 100 949.6
20260505161637 22 166 8.0 22.5 0.00 0.00 0.00 100 949.7
20260505161534 22 163 8.0 27.4 0.00 0.00 0.00 100 949.7
20260505161331 22 162 8.0 27.4 0.00 0.00 0.00 100 949.7
20260505161128 22 170 3.2 16.1 0.00 0.00 0.00 100 949.7
20260505161027 22 183 3.2 11.3 0.00 0.00 0.00 100 949.8
20260505160925 22 174 3.2 11.3 0.00 0.00 0.00 100 949.6
20260505160721 22 194 4.8 22.5 0.00 0.00 0.00 100 949.7
20260505160518 22 193 6.4 22.5 0.00 0.00 0.00 100 949.6
20260505160417 22 191 6.4 22.5 0.00 0.00 0.00 100 949.6
20260505160315 22 184 6.4 25.7 0.00 0.00 0.00 100 949.5
20260505160111 22 185 6.4 25.7 0.00 0.00 0.00 100 949.6
20260505153329 22 197 8.0 35.4 0.00 0.00 0.00 100 949.5
20260505153227 22 189 8.0 35.4 0.00 0.00 0.00 100 949.2
20260505153024 23 191 6.4 35.4 0.00 0.00 0.00 100 949.4
20260505152821 23 200 6.4 24.1 0.00 0.00 0.00 100 949.5
20260505152720 23 198 6.4 24.1 0.00 0.00 0.00 100 949.7